Location: El Mouella
(16.4949°N, 9.1594°W)
Time: 20:50:10
(UTC+00:00)

GPS 2-14 Rocket1 - Pass Details

Date: 02 June 2020
Orbit: 476 x 541 km, 20.7° (Epoch: 05 July)

Event Time Altitude Azimuth Distance (km) Brightness Sun altitude
Rises 19:43:01 0° 230° (SW) 2,672 6.7 -8.8°
Reaches altitude 10° 19:45:33 10° 217° (SW) 1,783 5.6 -9.3°
Maximum altitude 19:49:03 26° 159° (SSE) 1,065 3.9 -10.1°
Enters shadow 19:51:40 15° 110° (ESE) 1,505 4.4 -10.6°
